MPEC 2005-R62 : 2005 RN33

The following Minor Planet Electronic Circular may be linked-to from your own Web pages, but must not otherwise be redistributed electronically.


Read MPEC 2005-R61 Read MPEC 2005-R63


M.P.E.C. 2005-R62                                Issued 2005 Sept. 15, 16:05 UT

     The Minor Planet Electronic Circulars contain information on unusual
         minor planets and routine data on comets.  They are published
   on behalf of Commission 20 of the International Astronomical Union by the
          Minor Planet Center, Smithsonian Astrophysical Observatory,
                          Cambridge, MA 02138, U.S.A.

                  Supported in part by the Brinson Foundation
             Prepared using the Tamkin Foundation Computer Network

                              MPC@CFA.HARVARD.EDU
          URL http://cfa-www.harvard.edu/iau/mpc.html  ISSN 1523-6714

                                   2005 RN33

Observations:
     K05R33N* C2005 09 13.36631 02 38 07.51 -07 42 57.0          20.1 V ER062703
     K05R33N  C2005 09 13.37534 02 38 08.30 -07 43 01.8          20.2 V ER062703
     K05R33N  C2005 09 13.38432 02 38 09.09 -07 43 06.0          19.5 V ER062703
     K05R33N  C2005 09 13.39328 02 38 09.88 -07 43 10.4          19.8 V ER062703
     K05R33N  C2005 09 13.43107 02 38 13.05 -07 43 25.6          19.6 V ER062703
     K05R33N  C2005 09 13.44085 02 38 13.92 -07 43 30.5          19.8 V ER062703
     K05R33N  C2005 09 13.45057 02 38 14.74 -07 43 34.6          19.2 V ER062703
     K05R33N  C2005 09 13.46028 02 38 15.46 -07 43 39.1          19.4 V ER062703
     K05R33N  C2005 09 14.31905 02 39 34.58 -07 49 56.2          19.6 R ER062854
     K05R33N  C2005 09 14.33630 02 39 36.16 -07 50 03.3          19.6 R ER062854
     K05R33N  C2005 09 14.34205 02 39 36.60 -07 50 06.8          19.6 R ER062854
     K05R33N  C2005 09 14.42669 02 39 43.71 -07 50 43.8          19.7 V ER062703
     K05R33N  C2005 09 14.43459 02 39 44.48 -07 50 47.4          19.5 V ER062703
     K05R33N  C2005 09 14.44251 02 39 44.99 -07 50 50.4          19.5 V ER062703
     K05R33N  C2005 09 14.45032 02 39 45.59 -07 50 51.4          19.5 V ER062703
     K05R33N 5C2005 09 14.46782 02 39 47.22 -07 51 04.0          19.6 R ER062673
     K05R33N 5C2005 09 14.48102 02 39 48.40 -07 51 10.0                 ER062673
     K05R33N 5C2005 09 14.49676 02 39 49.63 -07 51 16.3                 ER062673
     K05R33N 5C2005 09 15.39688 02 41 10.45 -07 57 57.6          20.2 R ER062673
     K05R33N 5C2005 09 15.40417 02 41 11.08 -07 58 00.5                 ER062673
     K05R33N 5C2005 09 15.40856 02 41 11.40 -07 58 02.6                 ER062673
     K05R33N 5C2005 09 15.41192 02 41 11.68 -07 58 04.1                 ER062673
     K05R33N  C2005 09 15.41381 02 41 11.76 -07 58 03.0          19.0 V ER062703
     K05R33N  C2005 09 15.41912 02 41 11.86 -07 58 04.4          19.2 V ER062703
     K05R33N  C2005 09 15.42442 02 41 12.58 -07 58 10.6          20.2 V ER062703
     K05R33N  C2005 09 15.42971 02 41 12.98 -07 58 12.4          20.4 V ER062703

Observer details:
673 Table Mountain Observatory, Wrightwood.  Observers D. Mayes, J. Young.
    0.6-m f/16 Cassegrain + CCD, 0.6-m reflector + CCD.
703 Catalina Sky Survey.  Observer R. Hill.  Measurers E. C. Beshore,
    C. M. Casey, E. J. Christensen, G. J. Garradd, A. D. Grauer, R. E. Hill,
    S. M. Larson, R. H. McNaught.  0.68-m Schmidt + CCD.
854 Sabino Canyon Observatory, Tucson.  Observer J. E. McGaha.  0.36-m f/10.0
    Schmidt-Cassegrain + CCD.

Orbital elements:
2005 RN33
Epoch 2005 Sept. 7.0 TT = JDT 2453620.5                 MPC
M 333.92344              (2000.0)            P               Q
n   0.42734184     Peri.  303.02922     +0.72114375     -0.68146004
a   1.7456310      Node   100.26841     +0.67037419     +0.64097476
e   0.2624789      Incl.    7.28391     +0.17478598     +0.35321888
P   2.31           H   19.5           G   0.15
From 23 observations 2005 Sept. 13-15.

Ephemeris:
2005 RN33                a,e,i = 1.75, 0.26, 7                   q = 1.2874
Date    TT    R. A. (2000) Decl.     Delta      r     Elong.  Phase     V
2005 09 07    02 27.76   -06 58.7    0.488    1.369   129.0    34.9    20.1
2005 09 17    02 43.48   -08 09.8    0.438    1.345   133.6    32.8    19.7
2005 09 27    02 55.76   -09 26.4    0.397    1.326   138.3    30.2    19.4
2005 10 07    03 03.68   -10 34.0    0.364    1.310   143.2    27.2    19.1
2005 10 17    03 06.82   -11 11.1    0.340    1.298   148.0    24.0    18.8
2005 10 27    03 05.56   -10 56.1    0.325    1.290   152.0    21.2    18.7
2005 11 06    03 01.18   -09 31.6    0.321    1.287   154.2    19.6    18.6
2005 11 16    02 56.11   -06 52.8    0.327    1.289   153.5    20.0    18.6
2005 11 26    02 52.78   -03 13.8    0.344    1.296   149.8    22.5    18.8
2005 12 06    02 52.92   +01 01.2    0.373    1.307   144.4    26.1    19.1
2005 12 16    02 57.48   +05 26.8    0.414    1.322   138.3    29.7    19.5
2005 12 26    03 06.35   +09 42.4    0.465    1.341   132.2    32.9    19.9
2006 01 05    03 19.12   +13 36.7    0.527    1.364   126.4    35.5    20.2
2006 01 15    03 35.26   +17 04.0    0.598    1.389   121.0    37.4    20.6
2006 01 25    03 54.10   +20 02.0    0.677    1.417   115.8    38.7    21.0
2006 02 04    04 15.12   +22 30.7    0.765    1.448   111.0    39.5    21.3
2006 02 14    04 37.87   +24 30.9    0.859    1.480   106.3    39.8    21.6
2006 02 24    05 01.87   +26 03.8    0.961    1.513   101.8    39.8    21.9

Kyle E. Smalley              (C) Copyright 2005 MPC           M.P.E.C. 2005-R62

Read MPEC 2005-R61 Read MPEC 2005-R63


Our Web policy. Index to the CBAT/MPC/ICQ pages.

MPC

Valid HTML 4.01!